Wind_Speed
15 15 15 15 14 13 12 12 12 12 12 12 12 13 13 13 13 13 12 12 11 10 10 10 11 11 11 11 11 11 11 10 10 9 8 8 8 7 6 5 5 5 6 7 8 8 8 8 8 8 8 9 10 10 9 9 8 8 9 9 10 11 9 12 16 17 21 26 28 27 27 31 35 36 38 41 42 44 45 40 38 38 32 32 37 49 50 44
16 16 16 16 15 14 14 13 12 12 13 13 14 14 14 14 14 14 14 14 13 12 12 12 12 13 13 13 13 13 13 13 12 10 10 10 10 9 7 7 6 6 7 7 8 8 8 8 9 9 10 10 11 10 9 9 8 8 9 10 10 9 9 13 18 19 21 25 27 27 25 25 27 30 33 38 41 42 47 46 43 42 33 30 36 44 49 48
17 17 17 17 16 15 15 14 14 14 14 14 15 15 15 15 14 15 15 14 14 14 14 14 14 15 15 15 15 15 15 15 14 12 13 13 11 11 9 8 7 7 7 8 8 8 9 9 9 10 10 11 11 9 9 9 8 8 9 10 9 10 13 14 17 18 20 23 25 25 26 26 25 26 29 32 37 37 39 40 39 41 38 37 41 43 42 42
18 18 18 17 17 16 16 15 15 15 15 15 16 16 16 16 15 16 16 16 15 15 16 16 16 16 17 17 17 17 17 18 17 14 15 15 13 12 10 9 8 8 8 8 8 9 10 10 10 10 10 10 10 9 9 9 8 9 9 11 9 11 14 14 16 18 20 22 23 24 26 28 26 27 29 31 35 35 33 32 30 32 35 38 42 44 39 36
19 19 19 18 17 17 17 17 17 16 16 17 17 17 17 16 16 17 17 17 17 17 17 18 18 18 19 19 19 19 19 19 17 14 15 15 13 13 11 10 10 9 9 8 9 9 10 10 10 10 10 10 9 8 9 9 9 10 10 11 11 13 14 14 16 19 20 22 23 25 26 28 28 28 29 30 34 36 32 33 32 29 33 38 40 44 41 36
20 19 19 19 18 18 18 18 18 18 18 18 18 18 18 17 18 18 18 18 18 18 19 20 20 21 21 21 21 21 20 19 15 14 14 13 14 13 13 12 11 10 10 9 9 10 10 10 10 10 10 10 9 9 11 10 10 11 12 13 14 16 16 16 18 19 20 23 24 25 26 28 29 30 29 29 33 34 32 33 35 32 35 40 41 42 42 39
20 20 19 19 19 19 19 19 20 20 19 19 19 19 19 19 19 19 19 18 18 19 20 21 21 22 22 22 22 22 22 20 18 18 17 16 16 15 14 13 12 11 10 10 10 10 10 10 10 9 10 9 9 10 11 11 11 11 13 14 15 17 18 18 19 19 20 23 24 25 27 28 30 32 30 31 32 31 29 29 32 33 37 43 43 41 41 40
21 20 19 20 20 19 19 20 20 20 21 21 20 20 20 20 20 20 20 20 19 19 20 21 21 22 22 22 22 23 22 19 18 20 19 18 17 16 15 14 13 12 11 11 11 10 10 10 9 9 10 10 9 10 11 11 12 13 13 14 15 17 18 19 19 19 21 24 25 26 28 29 30 32 32 31 30 28 27 26 28 29 33 39 42 42 42 43
21 20 20 20 20 20 20 20 20 21 21 22 21 21 21 21 21 21 21 21 20 20 20 21 21 22 22 22 22 23 21 17 17 19 18 18 17 16 16 15 15 14 13 12 12 11 10 10 9 9 10 10 9 11 11 11 14 16 15 16 16 17 19 20 19 18 21 23 25 28 29 30 30 33 33 29 27 27 26 27 27 27 30 33 35 38 41 44
22 21 20 20 20 21 21 21 21 21 21 22 22 22 21 22 22 22 22 21 21 21 21 22 22 22 22 22 22 22 19 18 18 18 18 18 17 17 17 17 16 15 14 13 12 11 11 10 9 9 10 9 9 11 11 11 14 16 15 16 17 18 20 20 19 18 22 24 26 29 32 31 29 31 33 30 27 28 26 28 28 27 29 31 32 35 37 40
23 23 22 21 21 21 22 21 21 21 22 22 22 22 22 23 22 22 22 22 22 22 22 23 23 23 23 23 23 21 20 19 19 18 18 19 18 18 17 18 17 16 15 14 13 12 11 10 9 10 9 9 10 11 10 10 15 15 16 17 16 18 21 20 21 23 25 26 27 31 34 32 28 30 34 33 29 28 28 30 29 28 29 30 31 32 34 36
23 24 23 23 22 22 22 22 22 22 22 22 22 22 23 23 23 23 23 23 23 23 23 24 24 24 24 24 23 21 20 20 20 20 20 20 20 18 17 18 18 17 16 15 13 13 12 11 10 10 10 10 11 11 10 11 15 15 17 18 17 20 22 22 24 26 26 27 28 31 34 33 30 33 35 34 31 30 31 32 30 29 29 30 30 30 32 33
23 24 24 24 23 22 22 22 22 22 22 22 22 22 23 23 24 24 24 24 24 24 24 24 25 25 25 25 22 21 21 20 21 20 20 21 20 19 18 19 18 18 17 16 14 14 13 12 11 11 11 10 11 11 11 13 15 14 17 19 19 22 21 21 24 26 27 28 29 29 33 34 32 32 34 33 33 33 34 34 33 32 30 30 30 30 30 30
23 24 24 25 24 23 23 23 23 23 23 22 22 22 23 23 24 24 24 24 25 25 24 25 25 25 26 25 22 22 22 21 21 20 20 21 21 20 19 19 19 18 18 16 15 14 14 12 12 12 11 11 11 12 13 14 14 14 16 17 20 20 18 21 25 27 27 28 31 29 33 37 34 31 33 34 35 36 37 36 33 32 31 32 30 30 30 29
24 24 24 25 25 24 23 23 24 24 23 23 22 22 23 23 24 25 25 25 25 25 25 25 25 26 27 26 24 24 23 22 22 20 21 21 21 21 20 19 19 19 18 17 16 15 14 13 13 12 12 12 11 12 13 15 16 14 13 13 15 16 17 21 23 27 28 27 31 29 34 41 35 31 35 35 36 36 37 36 34 33 31 32 31 30 31 29
25 24 25 25 25 24 24 24 24 24 24 23 22 23 23 23 24 24 25 25 25 25 25 25 26 27 28 27 26 25 24 24 22 21 22 22 23 22 21 21 20 20 19 18 17 16 15 14 14 13 12 12 12 12 13 14 13 11 12 14 14 16 18 20 19 24 27 27 31 30 36 44 37 32 34 33 32 31 32 34 33 32 30 31 31 29 30 29
26 25 25 25 25 24 24 24 24 24 24 23 23 24 24 24 24 24 25 25 25 26 26 26 26 28 29 27 26 25 23 23 22 22 23 22 23 22 22 21 20 20 20 19 19 17 17 16 14 14 13 13 12 12 11 8 6 7 11 15 18 19 19 20 19 22 26 28 33 34 38 44 40 34 30 27 26 27 30 32 33 33 31 31 30 28 28 29
28 27 26 25 26 25 24 25 24 25 25 24 24 24 24 24 25 25 25 25 26 26 27 27 27 29 29 27 26 24 22 23 23 23 23 22 23 22 22 22 21 21 20 20 20 18 18 17 16 16 14 14 12 10 9 7 8 10 13 18 21 22 22 22 20 20 25 31 34 34 38 42 39 33 26 22 23 27 30 30 30 32 33 32 32 28 26 28
28 28 27 27 27 26 25 25 25 25 25 25 25 25 25 25 26 26 25 26 27 26 27 26 25 28 28 25 24 22 21 23 25 25 23 23 23 23 23 22 22 22 21 21 20 20 19 17 17 16 15 15 13 11 11 12 13 14 16 20 21 24 26 24 21 21 24 31 34 35 39 42 38 32 22 19 22 27 29 29 28 28 29 30 30 28 25 26
27 28 29 28 28 28 27 26 25 25 25 26 26 25 25 26 26 26 27 27 26 26 28 28 27 29 30 27 24 24 23 24 24 23 23 23 23 23 23 23 23 23 22 22 22 20 19 20 19 16 15 15 14 13 12 14 15 16 18 19 21 24 27 25 23 24 25 29 34 36 42 43 38 29 18 17 21 25 27 29 28 27 26 25 25 25 23 23
26 28 29 29 30 29 28 27 26 25 26 26 26 26 26 26 27 28 28 27 25 26 28 29 30 31 32 30 28 28 28 27 26 24 23 23 23 24 24 23 24 23 22 23 24 21 20 22 19 16 16 16 15 14 14 16 16 17 18 20 21 22 25 26 24 24 24 29 35 38 43 43 33 21 13 17 22 24 26 28 27 26 25 23 20 21 20 21
27 28 28 29 30 30 30 29 27 26 26 27 26 27 26 26 27 28 30 30 28 27 28 30 31 32 32 31 30 30 31 31 30 27 26 26 25 25 26 25 24 23 23 24 23 22 22 22 20 19 19 16 15 16 16 17 18 18 18 20 22 20 22 24 23 25 25 31 38 38 42 40 26 15 15 20 24 24 24 25 24 24 23 22 18 18 19 20
28 28 28 29 30 31 31 29 29 28 28 27 26 26 27 26 28 29 30 33 32 29 29 30 31 32 33 33 31 30 33 32 31 30 29 29 28 28 28 27 25 23 25 26 23 22 22 21 20 19 17 15 16 17 18 18 18 19 19 20 21 19 20 22 25 28 28 32 34 34 41 38 22 17 21 22 22 22 20 20 20 21 20 19 17 16 18 21
31 29 29 30 30 32 31 30 30 29 29 29 27 27 27 25 27 28 29 33 35 34 32 30 31 34 35 34 31 31 33 32 34 34 31 31 30 30 30 28 25 25 27 26 23 23 23 22 22 19 17 18 19 20 19 19 19 19 20 20 20 19 20 23 27 31 33 31 26 29 37 32 22 22 22 18 18 20 19 18 18 19 19 18 17 16 17 20
35 32 30 30 30 32 32 31 30 29 29 30 30 30 28 27 27 27 29 30 34 37 34 32 33 34 36 35 32 33 33 35 38 36 32 32 31 30 30 28 27 28 28 25 24 25 25 25 26 23 23 23 22 23 21 19 19 18 18 19 20 19 20 23 26 30 32 25 20 26 22 20 26 25 16 14 16 19 19 18 18 19 21 21 19 18 17 16
37 37 35 32 31 32 32 33 30 27 29 30 29 28 27 28 27 26 27 26 33 40 36 33 30 29 35 35 33 33 33 38 40 36 34 34 31 30 30 30 29 28 27 25 24 26 27 27 26 24 24 24 24 24 21 20 19 17 18 19 19 19 21 22 24 27 25 20 25 24 8 14 30 24 12 13 16 18 19 18 20 23 23 23 22 20 19 17
37 38 38 36 34 32 33 33 30 28 31 29 27 26 25 25 23 23 20 15 24 35 34 31 29 28 31 29 30 32 31 34 35 35 36 35 33 32 31 31 30 28 27 25 23 24 25 24 23 22 22 23 24 21 19 19 18 18 21 20 18 20 21 21 23 24 24 28 30 19 6 13 23 21 15 14 16 18 19 20 24 26 24 22 21 21 19 17
38 38 39 39 38 35 34 33 30 30 30 28 27 26 24 23 20 18 9 3 11 18 19 24 27 28 29 26 27 31 34 33 28 29 33 33 34 34 32 32 32 29 28 27 26 25 23 21 19 19 19 21 21 19 19 20 20 21 22 20 18 19 19 20 23 23 23 23 19 10 4 8 18 22 16 12 18 18 18 23 25 24 22 19 18 18 18 17
38 38 39 39 40 39 36 34 31 29 27 27 26 25 24 22 19 13 3 3 14 16 14 17 21 25 27 26 28 31 36 36 32 28 27 28 32 34 32 32 33 32 29 29 30 27 25 23 21 20 21 22 21 20 22 22 21 22 21 20 18 17 19 20 21 20 15 11 11 11 7 5 15 25 12 9 19 18 19 25 23 21 18 16 15 14 15 15
38 39 38 39 42 40 38 36 32 28 27 25 25 25 23 21 19 10 4 10 17 14 14 17 20 24 24 26 30 32 34 35 35 32 28 26 28 30 31 31 31 31 28 28 30 30 28 26 25 24 23 23 24 23 23 22 22 22 20 19 17 15 18 18 15 12 6 6 9 9 10 6 9 18 10 9 18 19 22 22 16 14 13 12 12 10 11 11
39 39 39 41 43 41 40 37 31 29 27 25 25 23 21 21 17 9 8 21 20 13 15 19 22 25 24 25 29 31 32 33 34 32 31 29 27 29 31 30 29 26 26 30 30 29 30 29 28 28 26 26 26 25 24 24 23 21 19 18 14 10 10 10 7 3 0 5 5 8 9 7 8 14 14 15 20 18 17 13 8 9 9 9 10 9 10 9
44 41 41 43 43 42 41 38 33 30 28 27 24 23 23 18 15 18 22 21 13 13 18 20 24 27 24 25 28 29 30 31 33 33 33 31 29 30 30 30 29 22 20 28 29 27 28 29 27 26 27 27 27 26 25 25 24 22 21 15 6 2 4 3 1 2 3 4 4 5 3 8 22 26 19 19 22 13 8 8 8 8 8 9 9 9 10 10
48 46 45 46 47 46 44 41 36 31 30 29 23 24 25 14 15 38 44 26 10 9 12 16 23 26 25 27 29 29 28 29 31 31 31 31 30 29 27 27 29 23 15 15 20 20 19 21 23 25 25 25 27 28 25 23 21 21 21 14 6 2 2 3 3 3 4 4 3 4 4 11 24 22 15 22 22 8 6 8 8 8 8 9 10 10 11 11
51 49 48 50 49 49 47 43 39 34 33 31 27 27 26 17 27 46 47 40 30 18 11 12 17 21 23 28 29 26 26 28 29 29 30 31 32 32 31 29 30 29 22 14 14 15 11 11 15 18 19 18 22 26 24 21 17 15 15 15 14 9 5 3 1 1 3 3 3 4 4 8 12 12 18 24 16 6 8 9 7 8 8 9 11 12 13 13
50 48 48 50 51 51 51 47 41 37 37 35 31 32 31 31 44 46 39 43 43 35 28 19 14 17 21 25 26 25 25 25 26 27 30 33 35 35 34 34 33 32 30 21 16 17 16 15 15 16 15 13 13 18 22 21 16 13 13 16 17 16 11 6 5 5 5 6 5 9 11 16 20 23 24 16 9 7 8 7 7 8 9 10 13 13 14 15
48 45 45 50 53 53 51 49 44 41 42 40 36 39 43 48 51 42 35 39 40 43 42 30 21 21 22 25 26 26 25 26 26 27 29 33 35 36 35 34 33 34 34 28 20 16 14 14 15 17 18 16 14 17 23 22 15 13 16 18 18 16 13 10 7 9 5 4 7 10 14 24 26 23 15 7 9 11 7 7 8 8 10 12 13 15 16 17
44 43 45 50 53 54 52 50 46 43 45 44 42 46 54 59 53 40 32 33 33 37 40 35 32 31 28 27 29 29 28 28 28 28 29 29 28 32 36 35 33 33 33 31 26 20 14 12 13 15 16 18 19 18 22 24 20 17 17 17 15 12 11 9 3 4 2 3 7 9 15 22 16 11 12 12 14 12 8 7 8 8 12 13 15 17 18 19
45 42 47 52 52 54 54 51 47 46 45 45 48 51 58 60 56 47 37 34 32 30 33 36 36 35 33 31 30 30 30 31 32 29 28 27 23 22 27 30 32 32 30 29 28 25 19 14 13 16 17 17 18 18 20 24 26 24 19 16 13 8 8 10 5 1 3 3 5 7 14 20 18 17 19 15 13 13 10 6 6 9 12 14 17 19 19 23
48 43 48 56 55 53 55 53 48 48 49 48 51 55 61 61 58 53 46 42 37 32 33 38 36 33 33 34 34 31 29 33 36 32 27 27 25 23 21 21 22 25 29 32 32 28 23 15 10 15 21 19 19 22 23 27 30 29 24 20 18 12 8 11 10 4 3 2 4 4 4 12 20 20 17 11 10 12 11 9 9 8 11 15 18 19 22 28
46 41 45 54 57 54 54 54 50 53 54 54 57 60 61 60 58 56 51 47 44 41 39 39 36 34 34 34 34 32 30 32 36 34 31 28 27 26 24 22 21 21 24 30 33 29 26 21 12 13 18 19 21 24 27 29 30 31 30 26 25 22 15 12 13 13 7 1 2 3 3 17 25 18 15 15 13 14 15 15 12 9 12 14 16 20 27 34
47 45 43 46 52 53 52 54 56 58 59 58 61 63 62 61 56 52 51 49 46 46 44 40 37 37 37 35 35 34 30 31 35 35 35 35 32 27 25 23 23 23 22 26 31 29 27 25 19 17 21 22 24 24 22 25 27 28 30 29 28 28 22 10 7 16 18 9 6 2 4 25 33 21 17 21 19 19 18 17 14 10 11 13 18 28 35 38
48 48 43 38 43 47 52 60 62 61 63 63 62 63 63 64 59 52 51 49 47 48 47 45 42 40 38 37 36 36 32 32 35 36 36 38 37 32 27 22 20 22 22 21 22 23 24 25 21 20 21 22 23 21 19 22 24 26 27 28 28 29 29 20 7 10 17 17 16 6 3 24 29 10 6 12 15 18 17 16 16 12 13 22 30 34 34 32
48 48 43 37 36 39 49 63 66 64 66 64 63 65 64 64 62 57 51 48 48 49 49 51 50 46 43 38 33 34 34 32 35 38 37 36 35 33 29 25 22 23 24 22 20 20 23 24 20 16 14 15 17 20 22 22 22 27 29 29 29 30 33 30 20 12 9 15 17 5 4 26 30 13 9 11 11 14 15 16 18 16 23 33 35 33 28 26
48 48 46 39 34 35 48 62 68 67 67 65 64 65 65 63 63 61 56 53 52 50 50 54 54 52 50 43 34 33 35 34 35 38 37 35 35 34 31 30 29 27 27 26 24 23 24 25 21 11 4 6 9 12 19 24 27 31 33 31 32 33 31 29 27 20 11 15 20 10 9 30 31 19 17 15 12 14 14 17 21 26 33 33 31 31 27 26
44 48 51 43 35 40 50 55 62 68 68 67 68 67 66 66 66 64 61 56 53 50 50 52 53 52 49 45 41 39 40 39 37 35 35 35 37 37 35 33 33 32 30 29 26 24 25 27 26 19 10 8 7 7 14 24 31 34 35 35 35 35 33 31 28 23 13 14 24 24 27 40 36 27 26 24 22 24 23 27 33 34 31 26 27 30 29 28
38 44 52 48 40 51 55 49 53 66 69 68 70 69 68 67 67 66 62 57 54 53 53 52 49 46 45 45 46 47 47 46 40 35 33 34 36 38 36 34 33 32 32 32 29 27 27 30 32 31 28 22 17 14 13 16 22 27 31 36 38 37 38 34 28 27 24 19 28 41 46 48 47 43 40 37 35 35 34 34 34 31 26 25 28 30 31 31
37 38 45 45 36 45 59 55 54 62 67 68 69 68 68 68 67 62 59 60 60 56 54 52 47 44 45 49 50 50 51 47 42 42 40 38 37 36 35 34 33 34 35 34 31 30 31 33 35 36 37 34 29 23 18 13 14 17 19 25 32 35 38 39 36 37 34 23 27 41 44 46 52 49 43 40 38 36 35 34 32 29 26 25 27 30 31 30
39 37 38 40 34 34 49 59 60 61 63 66 67 66 65 67 67 62 58 60 62 56 50 49 51 53 54 54 51 49 48 43 44 48 45 41 40 37 34 33 33 35 37 35 34 33 34 37 37 36 37 39 36 32 29 24 19 19 18 18 24 29 35 42 44 43 40 35 36 40 38 44 52 50 45 41 39 39 37 33 28 25 22 23 27 30 31 28
42 40 37 38 41 42 43 48 53 54 56 62 65 65 64 64 66 67 62 58 57 55 51 51 57 61 61 57 51 49 48 46 48 52 48 42 42 41 38 36 35 37 37 35 35 35 35 38 38 36 36 38 38 38 38 35 32 31 30 27 26 29 34 39 42 41 42 47 50 47 47 53 56 52 46 38 36 40 38 31 27 23 21 23 27 30 29 26
43 43 38 34 38 44 44 45 45 42 43 50 59 64 64 63 64 66 64 60 57 55 55 57 60 61 61 58 54 54 56 56 56 54 47 44 47 48 45 42 39 38 36 35 35 35 35 35 32 31 34 35 37 38 39 40 39 40 41 39 36 36 37 39 42 41 43 49 52 50 55 63 59 50 45 37 35 39 38 34 32 27 23 23 26 28 27 25
42 44 42 38 38 40 42 46 46 42 39 39 45 54 60 62 62 61 62 64 64 62 60 60 62 62 59 57 57 60 62 63 61 55 48 48 50 50 48 44 41 40 39 38 37 36 37 35 28 24 27 32 34 33 35 38 38 40 47 49 45 45 45 44 45 44 45 50 50 48 57 63 52 43 43 40 37 36 33 30 28 24 22 25 27 27 25 24
39 42 44 45 44 43 43 45 45 45 44 38 34 39 48 56 60 58 58 60 62 64 63 61 61 60 56 55 57 59 61 62 59 52 48 48 47 45 42 41 39 38 37 37 37 38 39 38 31 24 22 25 25 24 27 25 20 30 49 54 50 52 52 49 50 51 50 52 51 52 59 59 50 45 46 42 36 32 28 26 26 28 31 31 29 27 24 22
Wind_Direction
280 279 275 269 264 259 255 251 248 246 244 242 240 238 236 234 236 238 239 238 236 234 234 233 233 234 235 237 239 240 244 247 250 255 260 265 261 251 248 249 254 266 273 279 281 280 283 297 309 311 311 312 317 318 313 315 317 313 312 311 312 315 305 284 287 287 279 284 287 289 291 286 286 283 276 272 265 260 259 258 255 252 248 248 263 267 257 246
282 280 277 272 268 265 261 258 254 250 248 245 243 242 240 237 235 236 238 239 241 242 242 243 244 244 245 247 249 250 254 258 259 263 267 268 264 255 251 253 259 269 274 276 279 284 285 294 308 312 312 315 320 321 323 332 332 328 321 320 322 309 292 282 292 299 289 288 290 296 305 301 295 289 284 279 274 268 264 262 263 261 255 251 256 261 261 253
283 280 277 274 270 267 264 261 258 254 252 249 248 246 245 244 242 241 243 243 244 245 245 247 248 249 252 253 255 258 261 264 265 269 270 268 264 256 253 254 261 271 277 280 286 293 291 293 303 307 311 317 320 323 328 334 336 337 326 325 324 299 298 301 300 302 297 298 300 304 308 308 308 299 292 289 283 277 271 269 267 266 261 255 251 252 258 256
281 280 278 276 274 271 267 264 260 257 254 252 251 251 251 250 249 248 248 248 248 249 250 250 251 253 255 256 259 261 264 267 269 270 270 268 263 257 256 257 261 272 277 284 294 297 296 295 296 299 308 313 313 319 327 331 337 341 330 325 320 302 308 313 308 308 310 310 311 315 313 310 312 305 303 301 292 285 278 272 267 266 265 257 247 247 252 255
281 280 281 281 280 278 275 271 267 263 260 257 255 254 255 255 255 254 253 253 252 253 254 255 256 257 258 259 261 262 265 270 272 269 266 265 260 258 258 257 260 269 275 284 294 296 299 297 291 292 302 307 307 314 323 331 337 338 332 328 324 317 318 320 316 316 318 316 317 321 318 315 312 307 311 306 296 295 288 278 269 260 263 262 249 244 249 251
282 281 282 283 283 283 281 278 275 271 268 265 262 259 258 258 258 259 259 259 258 257 257 258 259 259 261 262 262 264 264 266 268 266 264 263 261 261 258 256 259 266 272 282 289 295 300 294 286 290 301 309 311 320 330 336 336 335 335 333 331 327 326 328 326 325 323 320 321 325 322 319 315 310 313 308 305 308 300 288 280 263 257 259 251 245 248 249
282 282 282 283 284 284 283 281 277 275 273 270 267 265 263 262 261 261 261 262 261 261 261 261 261 262 263 263 264 265 263 264 266 265 264 263 263 261 256 255 257 262 269 276 282 290 294 292 290 295 306 313 314 323 331 331 331 337 337 334 331 326 326 329 329 328 326 324 324 326 325 323 319 312 312 317 319 318 309 298 291 277 264 259 252 248 248 247
282 281 281 282 283 284 283 281 278 275 273 271 269 267 266 265 264 263 262 262 262 263 264 263 263 263 263 263 264 263 263 265 265 264 262 260 258 255 255 255 255 258 263 268 276 286 293 297 299 302 310 313 314 323 327 325 329 338 339 337 334 328 327 327 328 331 328 328 326 325 327 325 321 312 312 327 326 316 309 298 289 283 274 267 260 256 254 251
282 281 281 282 282 282 281 280 277 274 272 271 269 267 266 266 265 264 264 263 263 263 264 265 264 263 263 263 262 262 265 265 262 262 261 256 252 250 254 253 252 255 258 265 273 283 293 299 301 302 308 310 313 322 323 322 329 337 337 337 335 329 328 325 328 334 331 330 326 324 327 326 323 312 315 334 327 313 307 295 290 283 274 271 266 262 259 255
283 282 281 281 282 281 280 279 277 274 272 270 269 267 266 265 265 265 265 265 264 263 263 264 263 263 262 262 262 264 265 264 261 261 258 254 249 249 252 251 252 254 256 263 272 282 291 296 300 299 300 304 308 318 318 320 329 332 331 333 333 329 328 324 327 334 334 332 327 324 326 328 327 313 317 334 326 314 308 297 296 290 278 270 266 264 262 256
285 284 283 281 281 281 281 280 278 276 273 270 269 267 265 264 264 263 263 263 262 262 260 260 260 261 261 261 263 265 266 264 262 260 256 254 252 250 249 250 251 253 256 263 270 280 288 293 296 295 298 300 304 314 312 318 327 325 324 329 331 330 329 329 332 337 336 332 327 325 324 330 331 319 322 330 325 318 310 303 299 293 284 275 269 266 263 259
286 285 284 283 281 281 281 280 279 277 274 271 268 267 265 264 263 262 261 261 260 259 258 258 258 259 260 260 263 266 265 263 261 258 256 255 254 251 247 248 250 253 257 262 270 278 285 291 293 293 297 297 304 314 311 317 323 320 320 325 331 334 336 338 335 332 332 327 324 323 322 331 334 325 327 327 322 318 308 305 302 295 288 280 274 269 264 261
288 286 285 283 282 281 281 280 278 277 275 272 269 267 264 263 262 261 260 259 259 258 258 258 259 259 260 261 263 264 263 261 260 257 256 255 254 252 247 248 251 253 256 261 268 276 283 288 290 291 293 295 302 306 309 316 320 317 319 324 335 341 342 338 329 323 324 322 323 321 316 329 337 330 330 326 318 315 307 303 300 295 291 286 280 273 267 262
288 286 284 283 282 280 279 279 278 277 277 275 272 268 265 263 262 260 259 258 258 258 258 259 260 261 261 262 262 261 261 260 259 257 255 254 254 253 249 249 251 252 255 259 264 272 280 285 287 289 290 293 298 302 308 314 315 318 322 330 336 340 339 327 321 321 323 319 322 318 309 322 338 336 332 325 316 311 306 303 299 294 290 287 284 278 272 264
288 286 283 282 281 280 279 278 278 277 277 277 275 272 268 265 262 260 259 258 258 258 258 259 261 262 262 262 261 260 260 260 260 258 255 253 254 254 251 250 251 252 254 257 262 269 274 279 283 284 286 290 294 299 307 313 318 323 325 329 328 324 324 320 318 321 321 315 317 315 306 317 335 338 333 326 319 312 305 302 297 293 289 284 281 278 274 267
288 286 283 281 280 279 279 279 279 278 277 278 277 275 273 269 266 263 262 260 259 259 259 260 260 262 263 262 260 260 260 259 259 257 255 253 253 254 253 252 251 253 254 256 261 264 270 274 277 278 280 285 290 296 309 318 319 323 320 316 314 308 311 318 318 316 316 311 312 313 307 315 330 338 334 328 321 313 304 300 296 292 286 282 280 276 273 269
290 288 286 285 282 280 279 278 278 278 278 278 278 277 275 273 271 267 264 263 262 261 260 260 260 260 261 261 261 260 259 259 258 255 253 252 252 252 252 253 252 252 253 256 258 261 267 269 271 275 276 280 287 293 310 321 300 300 304 301 305 303 302 312 315 313 313 307 307 309 305 311 325 335 335 328 319 309 301 299 298 293 286 280 277 274 270 268
294 292 290 288 284 282 280 278 277 277 278 278 278 277 277 276 273 270 267 265 263 262 261 261 260 260 261 262 263 263 262 259 256 253 252 251 251 251 251 252 252 252 253 255 258 260 262 266 268 272 274 277 279 282 288 287 279 282 283 288 298 302 301 307 311 308 305 303 305 308 308 311 322 333 332 320 310 303 301 302 300 298 292 282 274 270 268 266
296 295 292 289 287 285 282 280 278 277 277 277 278 277 277 276 274 272 269 265 264 263 264 263 261 261 262 263 263 263 260 257 255 254 253 252 250 249 248 249 250 251 253 254 255 257 260 263 263 267 274 276 276 278 277 279 286 285 284 289 295 302 304 307 309 305 305 308 310 313 314 314 323 334 327 309 306 303 304 308 305 306 304 291 276 268 265 263
293 293 291 290 289 287 285 282 279 278 277 277 277 277 277 276 276 273 268 266 266 265 263 262 261 261 262 262 262 262 259 257 258 256 254 251 249 248 246 246 249 250 253 254 254 255 258 260 262 269 273 275 280 281 279 282 285 284 287 292 293 299 304 310 311 306 310 313 314 319 316 315 327 335 322 310 312 305 305 309 310 315 319 306 281 268 263 260
290 290 289 288 287 286 284 282 280 278 277 277 277 276 277 277 277 274 271 268 265 263 263 263 261 261 262 262 261 261 260 258 257 255 253 251 248 248 247 247 249 249 250 251 254 255 255 259 264 268 268 272 278 276 277 279 280 283 287 290 294 299 304 310 308 304 312 312 314 322 315 317 332 334 321 322 316 308 308 311 313 318 325 322 295 272 266 262
289 287 286 286 285 282 281 281 280 277 276 275 276 276 276 276 274 274 275 271 265 262 263 263 262 261 262 261 259 258 258 257 257 254 252 251 249 249 250 250 250 250 248 248 252 254 255 259 261 263 266 268 266 267 274 276 277 283 286 288 294 300 303 306 304 303 311 310 314 321 315 319 335 335 335 330 315 313 314 312 315 318 326 331 313 282 270 267
286 283 283 284 284 282 280 279 277 275 273 273 275 276 275 274 273 273 274 274 271 266 261 261 262 262 261 259 258 257 257 257 256 254 251 250 250 250 251 251 251 250 248 248 249 250 255 260 259 260 262 259 260 268 272 273 276 279 283 287 292 298 297 298 303 307 311 311 313 319 316 319 335 344 341 328 315 320 322 319 319 319 325 333 328 302 278 270
290 284 280 280 283 282 280 278 275 272 271 271 271 272 273 274 274 274 274 275 274 269 264 262 260 259 259 258 257 255 255 256 254 251 249 249 249 250 252 252 249 247 248 251 251 249 252 257 259 261 259 259 265 271 271 271 275 280 284 285 289 294 292 296 304 308 312 315 316 322 321 320 332 346 338 320 320 329 331 331 324 319 322 326 330 321 297 277
295 290 282 278 278 280 280 277 273 272 271 269 267 267 269 271 272 275 277 279 278 273 268 264 260 258 257 255 253 252 253 252 251 250 248 247 248 248 250 249 247 247 249 251 252 251 251 252 256 259 260 263 266 270 271 270 272 279 282 282 286 290 292 300 304 309 316 319 319 329 332 316 321 339 337 318 330 334 333 334 325 321 319 317 322 323 320 301
293 292 289 283 275 273 276 275 273 274 270 267 265 266 266 266 268 271 275 282 281 274 270 266 260 255 253 250 246 247 248 249 249 249 247 245 245 245 245 245 245 246 248 249 250 253 252 251 254 255 258 261 261 264 267 267 271 273 272 275 281 286 292 298 303 310 314 308 309 317 308 286 314 339 349 324 334 334 333 334 326 324 320 316 317 316 322 327
289 289 289 287 280 272 270 271 273 271 268 268 267 265 264 263 263 266 274 289 280 272 267 259 251 248 249 248 243 238 240 247 248 245 244 242 241 241 240 243 243 241 244 243 241 248 252 252 253 254 255 255 256 260 261 262 264 265 270 276 281 285 291 297 303 306 303 303 309 309 245 260 300 334 349 328 334 336 331 330 326 327 325 318 318 320 323 332
285 286 287 287 285 279 272 269 268 268 268 268 266 263 261 261 260 260 267 291 268 265 260 248 243 244 244 241 238 233 236 244 244 241 242 238 238 238 236 239 240 238 238 237 237 245 253 254 252 251 250 253 258 261 261 260 258 262 271 277 282 286 291 297 299 300 302 307 308 295 247 241 281 315 341 330 329 335 329 327 326 327 327 322 323 327 328 331
279 281 284 286 284 283 278 271 265 265 265 261 260 257 254 255 252 243 217 241 253 255 248 238 236 238 237 233 232 233 236 239 238 239 240 234 235 236 233 235 237 237 236 236 240 245 251 253 251 252 253 257 261 261 261 261 259 266 273 275 280 286 292 296 294 297 304 298 282 265 233 200 288 309 332 330 329 335 324 322 322 322 325 329 335 336 334 332
275 276 280 282 282 282 280 274 266 261 259 255 253 249 245 244 235 208 170 239 247 249 237 229 230 233 232 228 229 233 234 236 236 236 235 231 231 231 230 233 237 238 238 239 243 245 248 251 251 253 256 258 260 261 262 263 262 268 273 273 283 291 291 290 290 303 317 270 264 239 214 190 294 308 322 328 330 328 313 311 314 318 325 337 346 349 343 341
271 273 276 278 280 280 277 275 267 255 253 250 244 240 235 229 214 180 223 242 242 248 236 226 228 233 232 230 232 235 233 232 234 232 231 231 228 226 224 225 228 231 236 238 241 242 244 247 250 254 258 259 260 261 261 261 261 263 264 271 288 299 289 288 293 307 291 266 238 201 217 204 235 289 312 315 319 318 304 303 317 326 334 337 343 348 343 344
266 268 273 275 276 276 275 276 266 250 247 244 238 230 220 210 199 206 228 239 245 248 236 228 232 234 233 231 233 236 233 232 232 230 231 231 229 230 228 227 224 220 231 237 238 242 245 247 251 255 257 256 255 254 252 253 254 253 253 259 277 290 267 272 268 202 215 229 194 193 231 234 257 283 307 316 319 319 295 306 326 329 333 333 335 340 341 340
266 266 270 272 273 274 275 275 265 248 244 240 230 219 207 188 216 228 228 224 225 246 233 225 233 234 231 229 230 232 231 232 232 230 231 230 230 233 230 230 227 220 225 230 227 235 246 248 248 248 250 249 247 245 244 247 248 245 243 230 200 190 260 253 235 226 230 214 223 270 291 271 277 291 319 325 323 319 295 314 325 324 328 331 334 338 337 335
265 263 266 270 272 272 272 272 262 247 241 235 221 208 197 199 237 237 231 226 226 238 250 234 231 232 230 232 235 234 229 230 232 230 230 228 228 228 224 223 222 218 218 216 213 220 235 250 245 240 243 242 241 239 237 241 244 244 235 213 207 214 203 215 247 220 258 301 288 251 253 266 273 297 317 316 312 304 309 317 322 323 326 329 332 335 335 331
257 256 262 266 266 267 268 268 260 243 235 233 218 202 199 218 237 238 234 232 228 231 240 240 236 235 231 233 236 235 230 231 232 229 229 230 230 231 228 224 221 218 217 219 223 224 233 248 248 241 239 234 233 227 223 228 236 235 220 205 215 228 223 231 274 272 287 321 273 226 241 261 273 297 308 299 280 291 301 304 317 322 324 329 331 330 329 325
248 248 256 259 260 262 263 264 259 242 233 231 213 202 215 231 238 237 236 235 231 231 233 232 233 236 234 234 234 230 228 230 231 228 229 233 234 236 235 231 228 225 224 224 224 222 228 241 242 239 239 233 226 218 214 219 224 219 211 213 226 235 232 233 267 285 293 311 264 235 255 276 289 308 311 278 286 294 277 291 318 325 328 332 331 328 323 318
244 242 247 251 255 258 259 260 256 242 233 227 211 213 232 240 239 237 236 236 232 232 231 230 234 236 234 236 236 230 227 227 229 229 229 231 237 239 236 234 231 229 230 230 228 228 231 239 239 233 232 231 229 225 219 218 219 212 209 220 228 229 230 224 254 316 257 257 265 227 249 276 287 299 297 293 299 286 257 286 315 325 333 334 330 328 320 312
245 239 241 245 249 253 255 256 249 237 231 223 216 227 240 243 241 236 231 233 234 232 229 230 235 238 237 239 239 232 225 225 226 225 226 228 235 241 235 232 233 230 229 228 227 229 232 241 245 231 228 230 227 225 219 215 217 218 218 218 212 208 212 203 196 281 221 238 285 239 249 266 257 260 284 296 288 271 258 278 311 321 331 333 326 322 315 310
247 241 240 244 248 248 248 249 241 230 225 216 216 232 242 244 243 238 231 233 235 232 230 232 234 236 238 239 241 236 226 227 228 223 223 228 232 239 233 228 232 231 229 226 226 228 227 230 240 228 228 229 221 218 217 215 214 214 217 216 216 217 203 194 197 208 204 215 280 279 261 262 262 271 289 294 273 263 263 275 292 306 317 322 321 316 312 309
243 246 243 241 246 246 244 243 233 221 220 219 223 235 243 243 243 239 235 235 234 231 232 235 234 235 238 237 238 237 229 230 233 228 227 230 234 238 236 231 232 229 225 223 223 225 224 226 235 222 215 217 221 226 231 231 224 218 218 217 221 223 214 215 221 218 216 210 272 288 275 269 276 283 281 276 266 253 251 259 270 293 309 313 316 308 302 300
240 250 247 235 237 242 240 233 224 219 220 222 229 237 242 243 242 239 235 234 232 232 233 236 234 234 238 236 235 236 230 229 234 231 230 233 234 236 238 237 233 224 216 215 218 221 221 224 227 215 208 218 233 239 242 241 238 236 235 232 235 232 220 222 244 225 221 218 225 219 288 281 287 293 272 260 246 236 232 234 251 280 295 297 302 298 293 292
245 252 249 234 233 239 236 227 221 221 221 223 233 240 241 241 239 237 236 233 231 231 231 233 232 230 234 237 238 238 234 232 234 233 234 236 237 239 239 234 224 218 218 223 226 225 222 222 224 226 233 243 248 245 242 241 238 238 241 240 242 238 224 215 210 216 216 219 234 239 274 277 285 296 259 247 228 222 222 227 239 252 278 296 300 294 288 285
252 255 249 238 233 236 235 226 219 219 221 227 237 241 240 239 237 237 236 233 232 232 230 231 231 229 229 234 239 241 238 238 240 240 241 241 240 240 238 232 226 222 221 225 226 219 217 220 220 228 247 251 246 244 244 244 236 231 234 234 233 234 230 225 221 222 214 209 218 199 246 263 266 252 240 264 249 226 223 229 233 250 287 302 300 292 286 282
255 257 251 243 238 239 236 226 217 216 221 227 234 235 235 237 239 238 235 233 233 231 229 231 232 232 230 231 234 239 239 238 241 244 244 242 241 240 238 237 236 233 229 231 230 221 219 222 216 204 217 230 230 239 237 233 231 232 234 235 234 233 233 230 227 231 244 224 210 184 235 254 258 255 249 257 247 230 230 243 258 282 298 303 297 293 294 290
257 258 254 247 238 237 243 239 227 220 221 226 230 232 233 235 238 239 236 235 235 231 230 234 235 234 232 230 231 236 239 240 241 243 241 241 243 243 242 241 238 236 236 237 236 230 229 230 221 209 206 215 217 224 230 232 232 233 235 235 234 231 226 225 223 223 233 226 211 213 239 250 254 255 254 258 262 262 270 278 285 297 303 299 295 297 296 290
259 259 254 250 236 224 233 249 243 229 224 225 229 232 233 234 237 239 236 233 234 233 233 235 236 236 233 231 232 234 237 239 239 240 241 241 243 243 240 237 234 234 237 236 235 233 233 233 229 225 227 230 235 240 239 236 233 234 239 238 234 230 226 222 218 219 225 229 228 233 243 253 258 260 262 270 278 281 286 292 295 300 299 296 296 294 288 284
258 261 252 249 245 225 221 230 236 232 228 227 228 231 233 233 236 237 233 234 236 234 233 234 234 233 232 231 231 233 236 236 235 237 240 240 241 241 238 234 232 232 234 233 232 233 232 232 232 232 233 235 239 246 248 241 233 236 242 238 232 230 225 219 220 228 231 232 244 247 247 253 263 269 272 277 284 289 293 297 299 298 296 295 293 286 281 279
253 260 252 243 246 239 226 222 224 228 229 227 229 232 233 233 233 232 231 236 237 232 230 232 231 232 234 232 229 231 233 232 233 235 236 234 235 234 231 230 230 230 230 229 230 232 233 236 237 235 238 239 237 241 247 247 247 247 244 242 236 232 227 224 228 234 233 232 245 255 256 257 265 274 279 282 287 290 294 297 295 293 294 295 291 282 278 276
249 254 257 249 245 247 242 230 225 229 230 228 228 231 232 232 233 233 233 234 233 229 227 230 233 235 236 232 228 229 229 227 231 233 230 227 231 232 229 227 226 226 226 226 230 231 233 239 241 238 241 244 239 239 245 247 251 254 253 250 245 239 238 238 239 242 243 245 252 259 262 262 266 272 279 287 292 288 290 291 285 282 286 291 289 280 274 272
250 249 254 257 252 249 250 245 240 244 244 234 230 230 230 232 234 235 234 231 229 228 225 228 236 239 236 231 228 229 231 232 234 235 230 226 230 232 230 228 228 227 225 226 230 231 231 237 243 240 241 245 243 242 244 246 249 254 254 251 247 245 243 242 243 243 243 250 256 259 261 264 267 271 278 288 291 286 286 284 279 275 276 282 283 275 269 269
254 251 252 258 258 253 250 249 249 256 259 248 240 236 233 232 234 235 236 234 233 234 231 234 243 244 238 233 230 233 240 241 239 239 237 234 239 241 237 236 239 235 230 230 231 229 228 231 235 233 237 245 247 246 249 251 255 258 256 250 245 243 241 240 241 242 242 250 255 253 256 263 271 279 283 287 288 285 282 279 275 273 276 282 281 271 264 266
257 255 254 257 262 260 256 255 254 257 260 257 254 248 239 236 236 235 237 237 236 237 238 241 248 246 236 231 236 243 249 246 240 239 240 243 249 252 247 246 250 247 241 239 236 231 229 230 227 220 228 245 247 244 249 254 261 260 255 251 246 244 244 244 244 245 246 250 250 250 257 268 280 285 284 285 287 284 280 279 279 279 283 285 277 266 262 264
Height
3115 3115 3115 3115 3115 3115 3115 3115 3114 3114 3114 3114 3114 3114 3115 3115 3115 3115 3115 3115 3116 3116 3116 3117 3117 3117 3117 3117 3117 3117 3117 3117 3116 3116 3116 3116 3116 3116 3116 3116 3115 3115 3115 3115 3115 3115 3115 3114 3114 3114 3114 3114 3114 3113 3113 3112 3111 3110 3109 3108 3108 3107 3107 3106 3105 3105 3103 3102 3101 3101 3100 3098 3095 3096 3096 3094 3096 3096 3093 3093 3094 3095 3096 3101 3100 3091 3091 3095
3114 3114 3114 3114 3113 3113 3113 3113 3113 3113 3113 3113 3113 3113 3113 3114 3114 3114 3115 3115 3115 3115 3115 3115 3115 3116 3115 3115 3115 3115 3115 3115 3115 3115 3115 3115 3114 3114 3115 3114 3114 3114 3114 3114 3114 3113 3113 3113 3113 3112 3112 3112 3112 3111 3110 3109 3108 3107 3107 3106 3105 3105 3105 3104 3102 3102 3100 3098 3097 3097 3096 3095 3093 3091 3091 3088 3088 3090 3087 3087 3090 3089 3091 3095 3093 3086 3085 3089
3113 3113 3113 3113 3112 3112 3112 3112 3112 3112 3112 3112 3112 3112 3112 3112 3113 3113 3114 3114 3114 3114 3114 3114 3114 3114 3114 3114 3114 3113 3113 3113 3113 3114 3114 3113 3113 3113 3113 3113 3113 3113 3112 3112 3112 3112 3112 3111 3111 3111 3111 3110 3109 3109 3108 3108 3107 3105 3105 3103 3103 3103 3102 3102 3100 3099 3098 3096 3094 3093 3091 3090 3089 3088 3087 3084 3081 3083 3082 3081 3084 3084 3084 3086 3086 3084 3082 3083
3112 3111 3111 3111 3111 3111 3111 3111 3111 3111 3111 3110 3110 3110 3110 3110 3111 3111 3112 3112 3113 3113 3113 3113 3113 3113 3112 3112 3112 3112 3112 3111 3111 3112 3112 3111 3112 3112 3112 3112 3111 3111 3111 3111 3110 3110 3110 3110 3110 3109 3109 3109 3108 3107 3107 3106 3105 3104 3102 3101 3101 3100 3099 3099 3097 3096 3094 3093 3090 3089 3087 3085 3085 3083 3082 3080 3076 3076 3077 3077 3079 3078 3078 3079 3079 3079 3077 3077
3110 3110 3110 3109 3109 3109 3109 3109 3109 3109 3109 3109 3108 3108 3108 3108 3108 3108 3109 3110 3110 3111 3111 3111 3111 3111 3110 3110 3110 3110 3110 3110 3110 3110 3110 3109 3110 3110 3110 3110 3110 3110 3110 3109 3109 3108 3108 3108 3108 3108 3107 3107 3106 3106 3105 3104 3102 3101 3100 3099 3099 3097 3096 3096 3094 3092 3090 3089 3087 3086 3084 3081 3080 3079 3078 3077 3072 3070 3072 3072 3073 3074 3073 3071 3072 3071 3071 3072
3108 3108 3108 3107 3107 3107 3107 3107 3107 3107 3107 3107 3107 3106 3106 3106 3106 3106 3106 3107 3107 3108 3108 3108 3108 3108 3108 3108 3108 3108 3108 3108 3108 3108 3108 3108 3108 3108 3108 3108 3108 3108 3108 3108 3107 3107 3107 3107 3107 3106 3105 3105 3104 3103 3102 3101 3100 3099 3097 3096 3095 3094 3092 3092 3090 3088 3087 3085 3084 3082 3080 3078 3076 3075 3075 3074 3070 3067 3068 3068 3067 3068 3067 3065 3066 3066 3066 3066
3106 3106 3105 3105 3105 3105 3105 3105 3105 3105 3105 3105 3105 3105 3104 3104 3104 3104 3104 3104 3105 3105 3105 3105 3105 3105 3105 3105 3105 3105 3105 3106 3106 3106 3106 3106 3106 3106 3106 3107 3107 3107 3106 3106 3106 3106 3106 3105 3105 3104 3103 3102 3101 3100 3099 3098 3097 3096 3095 3093 3092 3091 3089 3088 3087 3085 3084 3082 3080 3079 3077 3075 3073 3070 3070 3069 3066 3064 3064 3063 3062 3062 3062 3061 3061 3062 3062 3062
3104 3104 3103 3103 3103 3103 3103 3102 3102 3102 3102 3102 3102 3103 3102 3102 3102 3102 3102 3102 3102 3103 3103 3103 3102 3102 3102 3102 3102 3102 3102 3104 3104 3103 3104 3104 3104 3104 3105 3105 3105 3105 3105 3105 3105 3104 3104 3103 3102 3101 3100 3100 3099 3098 3097 3096 3095 3094 3093 3091 3090 3089 3087 3086 3085 3083 3081 3079 3077 3076 3074 3072 3070 3067 3066 3064 3063 3061 3059 3058 3057 3056 3056 3056 3057 3058 3058 3058
3102 3102 3102 3101 3101 3101 3100 3100 3100 3100 3100 3100 3100 3100 3100 3100 3100 3100 3100 3100 3101 3101 3101 3101 3100 3100 3100 3100 3100 3099 3100 3102 3102 3101 3101 3101 3102 3102 3103 3103 3103 3103 3103 3103 3103 3102 3102 3101 3100 3099 3098 3098 3097 3096 3095 3093 3092 3091 3090 3089 3088 3087 3085 3083 3082 3081 3079 3077 3074 3072 3070 3069 3068 3064 3061 3061 3059 3057 3055 3054 3053 3052 3051 3051 3051 3052 3053 3052
3100 3100 3100 3099 3099 3098 3098 3098 3097 3097 3097 3097 3097 3098 3098 3098 3098 3098 3098 3098 3099 3099 3099 3099 3099 3098 3098 3098 3097 3097 3099 3099 3099 3099 3099 3099 3100 3100 3101 3101 3101 3101 3101 3101 3101 3100 3100 3099 3098 3098 3097 3096 3095 3094 3093 3092 3090 3089 3088 3087 3086 3085 3083 3081 3080 3079 3076 3074 3072 3069 3067 3066 3066 3062 3057 3057 3057 3054 3052 3050 3049 3048 3047 3046 3046 3047 3047 3047
3099 3098 3098 3097 3097 3096 3096 3096 3095 3095 3095 3095 3095 3095 3095 3095 3095 3095 3096 3096 3096 3097 3097 3096 3096 3096 3096 3096 3095 3096 3097 3097 3097 3097 3097 3097 3097 3098 3098 3098 3099 3099 3099 3099 3099 3098 3098 3097 3096 3096 3095 3094 3093 3093 3091 3091 3089 3088 3087 3085 3084 3082 3081 3079 3076 3075 3073 3071 3069 3067 3064 3063 3063 3059 3054 3053 3053 3051 3048 3047 3046 3045 3044 3043 3042 3042 3042 3043
3096 3096 3096 3095 3095 3095 3094 3094 3093 3093 3093 3093 3092 3092 3093 3092 3093 3093 3093 3094 3094 3094 3094 3094 3094 3093 3093 3093 3093 3094 3094 3094 3094 3095 3095 3095 3095 3096 3096 3096 3096 3097 3097 3097 3096 3096 3096 3095 3094 3094 3093 3092 3091 3090 3090 3089 3088 3086 3085 3083 3082 3080 3077 3075 3073 3071 3071 3069 3067 3064 3060 3058 3059 3055 3051 3050 3049 3048 3046 3044 3043 3042 3041 3040 3039 3039 3039 3039
3094 3093 3093 3093 3093 3093 3092 3092 3091 3091 3091 3091 3090 3090 3090 3090 3090 3090 3091 3091 3092 3092 3092 3091 3091 3090 3090 3090 3091 3091 3091 3091 3092 3092 3092 3092 3093 3093 3094 3094 3094 3094 3094 3094 3094 3094 3093 3093 3092 3092 3091 3090 3089 3088 3088 3087 3086 3085 3083 3081 3079 3076 3074 3072 3072 3071 3070 3068 3066 3064 3057 3053 3055 3054 3051 3049 3046 3045 3043 3041 3040 3039 3038 3037 3036 3035 3035 3036
3090 3090 3090 3090 3090 3090 3090 3090 3089 3089 3089 3089 3089 3088 3088 3088 3088 3088 3088 3088 3088 3089 3088 3088 3088 3087 3086 3087 3088 3088 3088 3088 3089 3090 3090 3090 3090 3091 3091 3091 3092 3092 3092 3092 3092 3092 3091 3090 3090 3089 3089 3088 3088 3087 3086 3085 3084 3083 3081 3079 3076 3075 3074 3072 3071 3069 3068 3066 3063 3063 3056 3048 3051 3051 3049 3047 3044 3042 3039 3037 3037 3035 3034 3033 3033 3032 3032 3033
3087 3087 3088 3088 3088 3088 3088 3087 3087 3087 3087 3087 3087 3086 3086 3085 3085 3085 3085 3085 3085 3085 3085 3085 3084 3084 3083 3083 3085 3085 3085 3086 3086 3087 3087 3087 3087 3088 3089 3089 3089 3090 3090 3090 3090 3090 3089 3088 3088 3087 3087 3086 3086 3085 3084 3083 3082 3081 3079 3078 3076 3075 3075 3073 3070 3067 3066 3064 3061 3061 3053 3045 3047 3048 3047 3045 3042 3039 3035 3033 3032 3031 3031 3029 3029 3029 3029 3029
3085 3084 3084 3085 3085 3085 3085 3085 3084 3084 3084 3084 3084 3083 3083 3083 3082 3082 3082 3082 3082 3082 3082 3081 3081 3080 3079 3080 3081 3082 3082 3083 3084 3084 3084 3084 3084 3085 3086 3086 3087 3087 3087 3087 3087 3087 3087 3086 3086 3085 3085 3084 3084 3083 3082 3081 3079 3079 3077 3076 3076 3074 3073 3072 3070 3067 3065 3063 3060 3059 3051 3042 3043 3045 3044 3043 3039 3036 3031 3028 3027 3027 3027 3026 3025 3025 3025 3026
3082 3082 3082 3082 3082 3081 3081 3081 3081 3080 3080 3080 3080 3080 3079 3079 3079 3079 3079 3079 3078 3078 3078 3078 3078 3077 3075 3077 3078 3078 3079 3080 3081 3081 3081 3082 3082 3082 3083 3083 3084 3084 3085 3085 3085 3085 3084 3084 3084 3083 3083 3082 3082 3080 3080 3079 3078 3078 3077 3075 3075 3073 3072 3071 3070 3066 3064 3060 3058 3057 3050 3042 3040 3041 3041 3040 3036 3033 3029 3026 3024 3022 3022 3021 3021 3021 3022 3023
3079 3079 3078 3078 3078 3078 3078 3077 3077 3077 3077 3077 3076 3076 3076 3076 3076 3075 3075 3075 3075 3075 3074 3074 3074 3072 3072 3074 3074 3075 3077 3077 3077 3078 3078 3079 3079 3079 3080 3080 3081 3081 3082 3082 3082 3082 3082 3082 3081 3080 3080 3080 3080 3079 3078 3078 3078 3077 3076 3075 3073 3072 3070 3070 3069 3066 3063 3059 3055 3054 3049 3041 3039 3039 3038 3036 3033 3029 3026 3024 3022 3019 3018 3017 3017 3018 3019 3019
3076 3075 3075 3075 3074 3075 3074 3074 3074 3074 3074 3074 3073 3073 3073 3072 3072 3072 3072 3071 3071 3072 3071 3071 3071 3069 3068 3071 3072 3073 3074 3073 3073 3075 3076 3076 3076 3077 3077 3077 3078 3078 3079 3079 3079 3079 3079 3079 3078 3078 3077 3077 3077 3077 3076 3076 3076 3076 3075 3073 3072 3070 3068 3067 3067 3065 3062 3057 3052 3051 3046 3039 3037 3036 3035 3033 3031 3027 3024 3022 3020 3018 3016 3014 3014 3014 3016 3017
3073 3072 3072 3071 3071 3071 3071 3071 3071 3071 3071 3070 3070 3070 3069 3069 3069 3068 3067 3067 3068 3068 3067 3067 3067 3066 3065 3068 3070 3070 3070 3070 3070 3072 3073 3073 3073 3073 3074 3075 3075 3075 3076 3076 3076 3076 3076 3075 3075 3075 3075 3074 3074 3074 3074 3074 3074 3073 3072 3071 3070 3068 3065 3065 3064 3061 3059 3055 3049 3048 3042 3036 3034 3033 3032 3031 3028 3025 3022 3019 3017 3016 3014 3012 3011 3012 3013 3014
3070 3069 3069 3069 3068 3068 3068 3068 3068 3068 3068 3068 3067 3067 3066 3066 3065 3064 3063 3063 3064 3064 3063 3063 3064 3063 3062 3065 3066 3066 3067 3067 3067 3069 3070 3070 3071 3070 3071 3072 3072 3072 3073 3073 3072 3073 3073 3072 3072 3073 3072 3072 3072 3072 3072 3072 3072 3071 3070 3069 3068 3066 3063 3062 3061 3058 3058 3053 3047 3045 3039 3032 3033 3031 3029 3028 3025 3022 3020 3017 3015 3014 3013 3010 3009 3009 3011 3012
3067 3066 3066 3066 3065 3065 3065 3065 3065 3065 3065 3065 3065 3064 3064 3064 3063 3061 3060 3058 3059 3061 3060 3059 3059 3059 3059 3060 3062 3063 3062 3062 3064 3065 3066 3067 3067 3067 3067 3068 3069 3069 3070 3069 3069 3070 3069 3069 3070 3070 3070 3070 3070 3070 3070 3070 3069 3069 3068 3067 3065 3064 3062 3060 3059 3056 3056 3052 3045 3043 3036 3028 3030 3029 3027 3025 3022 3020 3018 3016 3014 3013 3011 3010 3008 3008 3009 3010
3065 3064 3064 3063 3063 3062 3062 3062 3062 3062 3062 3062 3063 3062 3061 3061 3060 3059 3057 3054 3054 3056 3056 3055 3055 3055 3055 3055 3058 3059 3057 3059 3060 3061 3062 3063 3063 3064 3064 3065 3066 3066 3066 3066 3067 3067 3066 3066 3066 3067 3068 3068 3068 3067 3068 3067 3067 3066 3066 3065 3063 3063 3061 3059 3057 3055 3055 3051 3045 3042 3034 3026 3027 3027 3024 3023 3019 3018 3017 3014 3013 3011 3010 3009 3007 3007 3007 3008
3061 3061 3060 3060 3060 3060 3059 3060 3059 3059 3059 3059 3060 3059 3059 3059 3058 3057 3055 3052 3049 3049 3051 3052 3052 3050 3049 3052 3054 3054 3054 3055 3054 3055 3059 3059 3059 3060 3060 3062 3063 3062 3062 3063 3064 3064 3063 3063 3063 3065 3065 3065 3065 3065 3065 3065 3064 3064 3063 3062 3061 3061 3060 3057 3056 3053 3051 3049 3045 3040 3032 3023 3024 3024 3022 3020 3018 3016 3015 3013 3012 3010 3009 3008 3007 3006 3006 3006
3058 3058 3056 3056 3056 3056 3057 3057 3056 3057 3057 3056 3056 3056 3056 3056 3056 3055 3054 3050 3044 3042 3045 3046 3046 3046 3045 3047 3050 3050 3050 3049 3048 3051 3055 3055 3056 3057 3057 3058 3059 3058 3059 3060 3060 3060 3060 3060 3060 3062 3062 3062 3062 3061 3062 3062 3061 3061 3060 3059 3059 3058 3058 3056 3055 3051 3048 3046 3043 3042 3038 3025 3020 3023 3021 3018 3017 3015 3013 3012 3011 3009 3008 3007 3006 3006 3005 3005
3056 3054 3053 3053 3052 3052 3053 3052 3053 3055 3053 3053 3054 3054 3054 3053 3054 3054 3052 3050 3041 3035 3039 3040 3041 3040 3038 3041 3044 3046 3046 3042 3042 3047 3050 3050 3052 3053 3053 3054 3054 3055 3056 3057 3057 3056 3056 3057 3058 3059 3059 3059 3059 3059 3060 3060 3059 3059 3057 3057 3057 3057 3056 3055 3054 3051 3048 3045 3042 3044 3045 3031 3019 3019 3019 3016 3015 3013 3012 3011 3009 3008 3007 3005 3005 3004 3004 3004
3052 3051 3050 3049 3048 3048 3048 3047 3050 3051 3049 3051 3051 3052 3052 3051 3053 3052 3052 3052 3038 3028 3032 3034 3034 3034 3033 3036 3039 3042 3040 3036 3038 3042 3043 3046 3048 3048 3049 3049 3051 3052 3053 3054 3054 3052 3052 3054 3055 3056 3056 3055 3055 3056 3057 3057 3057 3056 3054 3056 3056 3055 3054 3053 3052 3051 3048 3044 3040 3040 3043 3037 3024 3017 3016 3015 3013 3012 3011 3010 3008 3007 3005 3003 3003 3003 3003 3003
3048 3047 3046 3045 3044 3044 3044 3044 3045 3046 3047 3048 3048 3049 3049 3050 3052 3051 3054 3052 3033 3022 3026 3027 3028 3029 3029 3032 3034 3035 3033 3032 3035 3037 3038 3042 3042 3043 3045 3045 3047 3048 3050 3050 3049 3049 3050 3051 3052 3053 3053 3052 3052 3054 3055 3055 3055 3053 3053 3054 3054 3053 3053 3051 3050 3049 3047 3044 3039 3036 3039 3039 3026 3014 3015 3014 3011 3011 3009 3008 3007 3005 3004 3002 3002 3002 3001 3002
3043 3042 3041 3041 3039 3039 3040 3040 3041 3043 3043 3044 3045 3046 3046 3049 3050 3050 3055 3048 3027 3019 3022 3023 3025 3025 3025 3028 3029 3028 3028 3029 3031 3033 3035 3037 3037 3039 3041 3041 3043 3044 3046 3047 3046 3046 3048 3048 3049 3050 3050 3049 3050 3051 3051 3052 3052 3051 3052 3052 3052 3052 3050 3049 3048 3046 3047 3045 3038 3035 3037 3038 3024 3012 3014 3013 3009 3009 3008 3007 3007 3005 3004 3002 3001 3002 3001 3001
3038 3038 3038 3036 3034 3034 3035 3035 3037 3039 3040 3040 3041 3042 3043 3045 3046 3051 3053 3039 3021 3016 3019 3020 3021 3021 3022 3024 3024 3024 3025 3025 3027 3030 3032 3033 3034 3036 3037 3038 3040 3041 3044 3044 3043 3044 3045 3046 3046 3047 3047 3047 3047 3048 3048 3049 3049 3049 3050 3049 3050 3050 3048 3047 3045 3045 3047 3042 3035 3034 3035 3038 3028 3012 3011 3012 3009 3008 3007 3006 3006 3004 3003 3002 3001 3001 3001 3001
3033 3033 3033 3031 3030 3030 3030 3032 3034 3035 3036 3037 3037 3038 3040 3041 3045 3049 3041 3025 3017 3016 3015 3017 3018 3017 3018 3020 3020 3020 3021 3022 3024 3026 3027 3028 3030 3031 3032 3034 3036 3039 3040 3039 3039 3041 3041 3042 3042 3043 3044 3044 3044 3045 3046 3046 3046 3047 3048 3047 3049 3048 3046 3045 3044 3046 3046 3037 3032 3033 3034 3037 3030 3012 3008 3011 3009 3007 3006 3005 3005 3003 3003 3002 3001 3001 3000 3001
3027 3027 3028 3026 3025 3025 3025 3028 3030 3030 3031 3032 3033 3034 3035 3038 3041 3035 3023 3018 3017 3013 3011 3014 3013 3013 3016 3017 3017 3017 3019 3020 3020 3022 3023 3025 3026 3026 3028 3030 3032 3035 3035 3033 3036 3037 3037 3038 3039 3040 3040 3041 3041 3042 3042 3042 3043 3044 3045 3047 3048 3048 3045 3043 3043 3042 3040 3034 3032 3033 3034 3032 3021 3009 3008 3009 3007 3005 3004 3003 3003 3002 3002 3002 3001 3001 3000 3000
3021 3022 3022 3021 3019 3019 3021 3023 3025 3025 3026 3027 3029 3029 3032 3034 3027 3015 3011 3015 3014 3008 3009 3011 3010 3011 3014 3012 3012 3014 3016 3017 3018 3019 3021 3022 3023 3023 3026 3027 3029 3031 3031 3030 3033 3033 3034 3034 3034 3035 3035 3036 3036 3037 3038 3038 3039 3040 3042 3044 3046 3045 3043 3040 3038 3035 3032 3032 3031 3032 3033 3025 3010 3005 3006 3005 3003 3003 3002 3002 3001 3001 3001 3001 3000 3000 2999 2999
3014 3016 3016 3015 3014 3014 3015 3017 3018 3019 3021 3022 3023 3024 3027 3024 3010 3001 3005 3009 3009 3008 3008 3009 3008 3009 3010 3009 3010 3012 3014 3014 3015 3017 3018 3018 3018 3018 3020 3022 3024 3027 3029 3030 3030 3030 3031 3029 3029 3031 3031 3031 3032 3033 3035 3035 3036 3037 3039 3041 3041 3040 3040 3037 3035 3033 3031 3031 3030 3031 3029 3017 3005 3004 3004 3002 3002 3001 3001 3001 3000 3000 3000 3000 2999 2999 2999 2998
3007 3007 3009 3009 3008 3007 3008 3010 3012 3013 3014 3015 3016 3017 3017 3009 2997 2994 2998 3001 3005 3006 3005 3006 3008 3007 3007 3007 3007 3010 3012 3012 3012 3014 3014 3013 3013 3013 3015 3018 3019 3022 3025 3027 3027 3027 3027 3025 3025 3027 3027 3028 3029 3030 3032 3032 3034 3035 3036 3038 3037 3036 3037 3036 3034 3033 3032 3032 3028 3025 3019 3008 3003 3003 3002 3002 3001 3000 3000 2999 2999 2999 2998 2998 2998 2998 2997 2997
2999 2999 3001 3000 3000 3001 3002 3003 3005 3006 3005 3007 3008 3006 3001 2993 2988 2990 2993 2995 2998 3000 3001 3004 3005 3004 3004 3003 3004 3006 3008 3008 3009 3011 3010 3010 3010 3010 3011 3013 3015 3017 3019 3022 3023 3023 3023 3022 3023 3024 3024 3026 3027 3028 3029 3030 3031 3032 3033 3033 3033 3034 3035 3035 3034 3032 3033 3032 3023 3015 3010 3003 3002 3001 2998 3000 2999 2998 2999 2998 2997 2997 2997 2997 2997 2996 2996 2996
2991 2991 2991 2991 2993 2995 2995 2997 2998 2997 2997 2998 2996 2992 2987 2982 2984 2990 2992 2992 2992 2994 2998 3000 3000 2999 2999 2998 3000 3001 3003 3005 3005 3006 3006 3007 3007 3004 3006 3009 3011 3013 3015 3018 3020 3020 3020 3020 3019 3021 3022 3022 3024 3024 3025 3027 3028 3028 3029 3029 3031 3033 3033 3034 3034 3032 3033 3030 3018 3009 3006 3002 3002 2999 2996 2997 2997 2997 2997 2997 2996 2996 2995 2995 2995 2995 2995 2994
2983 2982 2980 2981 2986 2989 2990 2991 2991 2989 2989 2988 2985 2983 2979 2976 2980 2986 2989 2989 2989 2991 2994 2994 2994 2994 2995 2995 2995 2997 2999 2999 2999 3001 3002 3003 3002 2999 3001 3004 3006 3009 3012 3016 3017 3017 3018 3018 3017 3018 3019 3020 3022 3022 3023 3024 3024 3024 3026 3027 3028 3030 3030 3031 3033 3031 3029 3026 3015 3006 3003 3000 2998 2996 2994 2995 2995 2994 2995 2995 2995 2994 2994 2994 2994 2993 2993 2992
2976 2973 2969 2974 2981 2982 2983 2985 2983 2981 2978 2976 2976 2974 2970 2969 2974 2979 2983 2985 2987 2988 2988 2988 2989 2991 2991 2992 2991 2993 2995 2993 2993 2996 2997 2998 2998 2996 2998 3001 3003 3005 3008 3011 3012 3012 3015 3016 3015 3014 3016 3018 3018 3018 3018 3019 3020 3021 3023 3024 3025 3026 3027 3027 3027 3025 3024 3022 3015 3007 3001 2994 2991 2992 2992 2993 2993 2993 2993 2993 2993 2993 2993 2992 2992 2991 2990 2989
2969 2964 2960 2968 2974 2973 2978 2979 2975 2969 2964 2964 2965 2963 2962 2964 2968 2972 2976 2979 2982 2983 2982 2983 2987 2988 2987 2988 2987 2988 2991 2990 2990 2992 2993 2993 2993 2993 2995 2998 2999 3002 3004 3006 3007 3009 3011 3012 3012 3011 3012 3014 3012 3012 3012 3012 3015 3016 3017 3019 3020 3021 3023 3023 3022 3020 3020 3020 3017 3012 3001 2987 2986 2990 2990 2990 2991 2992 2992 2991 2991 2991 2990 2990 2990 2990 2989 2988
2960 2954 2952 2963 2965 2966 2972 2969 2960 2957 2955 2955 2956 2956 2959 2961 2962 2965 2969 2973 2975 2977 2978 2980 2983 2984 2983 2983 2983 2984 2987 2987 2986 2988 2988 2988 2988 2989 2991 2994 2996 2998 3000 3001 3003 3005 3007 3008 3008 3007 3006 3007 3007 3008 3010 3010 3011 3011 3012 3014 3014 3016 3020 3021 3019 3016 3016 3016 3013 3013 3002 2983 2981 2987 2986 2986 2988 2988 2989 2990 2989 2990 2989 2989 2989 2988 2987 2986
2949 2944 2947 2956 2955 2958 2962 2953 2947 2948 2944 2944 2948 2950 2951 2952 2954 2959 2963 2966 2969 2971 2973 2975 2977 2979 2979 2978 2978 2980 2983 2983 2983 2983 2983 2983 2984 2986 2989 2991 2993 2995 2997 2998 2999 3002 3004 3004 3004 3003 3002 3004 3005 3007 3008 3007 3008 3008 3009 3009 3011 3013 3013 3014 3014 3009 3011 3012 3008 3013 3006 2982 2977 2985 2983 2983 2986 2985 2987 2988 2988 2988 2988 2988 2987 2985 2984 2982
2938 2936 2943 2948 2945 2949 2950 2940 2937 2938 2934 2938 2944 2944 2944 2946 2949 2954 2958 2961 2962 2964 2966 2967 2969 2972 2973 2974 2975 2976 2978 2979 2979 2978 2979 2980 2982 2984 2986 2988 2990 2992 2993 2994 2996 2999 3001 3000 3001 3001 3001 3002 3003 3004 3004 3005 3005 3004 3003 3004 3006 3006 3005 3008 3009 3006 3007 3006 3004 3012 3003 2976 2973 2983 2982 2982 2985 2985 2986 2986 2986 2987 2986 2985 2982 2980 2980 2979
2931 2929 2934 2938 2937 2938 2935 2928 2928 2928 2928 2935 2938 2935 2938 2940 2942 2946 2950 2953 2954 2957 2958 2959 2962 2965 2967 2971 2972 2971 2974 2975 2974 2974 2975 2977 2978 2980 2982 2984 2986 2988 2988 2989 2992 2995 2996 2996 2997 3000 3001 3001 3001 3001 3000 2999 2999 2997 2997 2999 3000 3000 3003 3005 3005 3005 3003 2998 2999 3005 2989 2966 2971 2981 2980 2982 2984 2983 2985 2985 2984 2984 2982 2981 2978 2976 2976 2975
2926 2923 2924 2930 2932 2928 2920 2921 2925 2923 2924 2929 2928 2926 2930 2932 2933 2938 2942 2946 2949 2952 2953 2953 2956 2960 2963 2967 2968 2968 2968 2968 2969 2970 2971 2973 2973 2975 2978 2980 2982 2984 2985 2986 2988 2990 2991 2990 2990 2992 2993 2992 2992 2992 2990 2990 2992 2991 2991 2993 2994 2996 2998 2999 3000 3002 2996 2991 2993 2989 2971 2961 2970 2977 2976 2979 2981 2980 2982 2982 2981 2980 2978 2977 2975 2973 2973 2971
2921 2918 2917 2922 2925 2920 2914 2918 2922 2918 2918 2922 2920 2920 2923 2923 2926 2932 2936 2940 2943 2945 2947 2949 2952 2956 2958 2961 2963 2962 2962 2963 2966 2966 2966 2967 2967 2969 2973 2976 2978 2980 2980 2982 2984 2986 2986 2984 2982 2983 2983 2983 2984 2984 2983 2984 2985 2985 2985 2986 2988 2990 2992 2994 2995 2990 2988 2989 2982 2971 2965 2963 2965 2970 2973 2975 2976 2977 2978 2977 2976 2976 2974 2973 2972 2970 2969 2968
2915 2912 2912 2915 2916 2915 2912 2913 2915 2913 2914 2916 2912 2912 2916 2917 2922 2927 2929 2931 2935 2939 2942 2944 2948 2950 2950 2952 2954 2954 2955 2958 2960 2960 2961 2962 2962 2964 2969 2971 2973 2975 2975 2977 2980 2980 2979 2977 2977 2977 2978 2979 2981 2981 2981 2981 2981 2981 2981 2982 2983 2985 2987 2988 2984 2980 2985 2986 2968 2959 2967 2964 2955 2961 2969 2970 2971 2973 2972 2972 2972 2971 2970 2970 2969 2967 2966 2965
2909 2907 2908 2911 2910 2909 2908 2909 2910 2910 2910 2910 2907 2907 2910 2911 2914 2917 2920 2924 2928 2932 2935 2937 2939 2939 2939 2942 2945 2946 2950 2953 2953 2952 2954 2956 2957 2960 2964 2967 2968 2969 2970 2973 2974 2975 2974 2972 2972 2975 2974 2976 2979 2979 2977 2978 2978 2978 2978 2978 2979 2981 2980 2978 2975 2976 2980 2973 2957 2958 2966 2957 2950 2957 2962 2963 2967 2968 2967 2968 2967 2967 2967 2967 2965 2963 2962 2962
2904 2902 2904 2906 2904 2903 2903 2904 2906 2905 2905 2905 2902 2901 2903 2904 2905 2908 2914 2918 2919 2923 2927 2927 2927 2929 2931 2935 2938 2939 2941 2943 2941 2942 2946 2950 2952 2955 2958 2960 2961 2962 2965 2967 2968 2970 2970 2967 2969 2972 2971 2971 2974 2975 2974 2975 2975 2974 2974 2974 2975 2975 2974 2971 2970 2972 2971 2963 2957 2961 2960 2949 2947 2953 2955 2959 2964 2963 2963 2964 2963 2964 2964 2963 2961 2960 2959 2959
2898 2898 2900 2900 2898 2898 2899 2899 2898 2896 2897 2899 2897 2895 2898 2899 2898 2903 2908 2910 2910 2913 2916 2916 2918 2923 2926 2929 2932 2931 2931 2933 2932 2935 2942 2945 2946 2947 2949 2952 2954 2958 2961 2962 2963 2965 2966 2964 2965 2968 2968 2966 2968 2971 2972 2971 2970 2968 2967 2968 2969 2968 2967 2965 2964 2966 2966 2959 2956 2960 2954 2940 2939 2949 2954 2956 2959 2958 2958 2958 2958 2960 2960 2958 2957 2956 2955 2956
2893 2894 2896 2894 2891 2893 2893 2892 2892 2890 2889 2891 2891 2892 2894 2893 2895 2900 2901 2900 2902 2905 2907 2909 2913 2918 2921 2924 2926 2925 2925 2927 2929 2934 2939 2939 2939 2941 2943 2947 2951 2954 2955 2957 2958 2960 2961 2961 2962 2965 2965 2961 2962 2967 2967 2966 2968 2963 2956 2956 2959 2959 2957 2957 2957 2959 2958 2954 2954 2955 2944 2931 2934 2948 2953 2951 2952 2952 2952 2952 2954 2954 2954 2954 2953 2952 2953 2953
2888 2889 2891 2889 2885 2886 2888 2886 2887 2885 2882 2883 2886 2889 2889 2889 2894 2899 2896 2894 2897 2900 2903 2907 2911 2914 2916 2916 2917 2918 2920 2923 2927 2933 2936 2936 2938 2940 2942 2945 2947 2949 2951 2953 2953 2954 2956 2956 2958 2962 2961 2957 2960 2964 2963 2966 2966 2950 2936 2940 2948 2949 2950 2951 2951 2950 2950 2949 2949 2943 2932 2929 2938 2946 2946 2944 2946 2947 2946 2948 2949 2948 2948 2948 2948 2948 2949 2949